Other Surface Observations
Issued by NWS

Home | Current Version | Previous Version | Text Only | Print | Product List | Glossary On
Versions: 1 2 3 4 5 6 7 8 9 10 11 12 13 14 15 16 17 18 19 20 21 22 23 24 25 26 27 28 29 30 31 32 33 34 35 36 37 38 39 40 41 42 43 44 45 46 47 48 49 50
533
SXUS52 KTAE 272318
OSOTAE
OSOTAE
North Florida/South Alabama/Southwest Georgia Weather Roundup
National Weather Service Tallahassee Florida
700 PM EDT THU JUL 27 2017

Note: "fair" indicates few or no clouds below 12,000 feet with no
significant weather and/or obstructions to visibility.

!FLZ017-115-028-034-025-280000
...North Florida...

CITY           SKY/WX    TMP DP  RH WIND       PRES   REMARKS
TALLAHASSEE    MOSUNNY   92  71  50 NW5       29.94S HX  98
APALACHICOLA   CLOUDY    80  74  81 W7        29.96R
PERRY          PTSUNNY   88  74  63 NW5       29.95S HX  97
CROSS CITY     CLOUDY    86  73  64 SW7       29.99S HX  93
JACKSONVILLE   PTSUNNY   84  77  79 S5        29.93S HX  94
$$

!FLZ112-006-005-002-011-280000
...Florida Panhandle...

CITY           SKY/WX    TMP DP  RH WIND       PRES   REMARKS
MARIANNA       SUNNY     91  72  53 E3        29.93F HX  98
BONIFAY        NOT AVBL
PANAMA CITY NW FAIR      87  77  72 S6        29.92F HX  99
TYNDALL AFB    SUNNY     88  77  68 W15       29.93F HX 100
TYND DRONE APT FAIR      87  77  73 W7        29.93F HX  98
DE FUNIAK SPR  FAIR      91  72  53 CALM      29.95S HX  98
EGLIN AFB      MOSUNNY   88  76  67 SW6       29.94F HX  99
DESTIN         CLOUDY    91  77  63 SW8       29.94F HX 104
HURLBURT       SUNNY     83  73  69 NW7       29.93F
CRESTVIEW      MOSUNNY   94  72  48 CALM      29.95S HX 102
PENSACOLA      LGT RAIN  89  77  67 SW15      29.94S HX 101
$$

!ALZ063-066-280000
...South Alabama...

CITY           SKY/WX    TMP DP  RH WIND       PRES   REMARKS
DOTHAN         SUNNY     94  72  48 CALM      29.97F HX 102
OZARK CAIRNS   SUNNY     92  76  58 S3        29.94S HX 104
FT RUCKER HELI SUNNY     92  73  53 CALM      29.93F HX 100
RUCKER HELI 3  FAIR      90  72  55 N3        29.94S HX  97
RUCKER HELI 2  FAIR      92  73  52 CALM      29.93S HX 100
FLORALA APT    MOSUNNY   93  71  48 N3        29.96S HX 100
ANDALUSIA      SUNNY     93  76  57 CALM      29.94S HX 105
TROY           MOSUNNY   90  76  63 CALM      29.95S HX 101
EUFALA         FAIR      89  76  65 CALM      29.94  HX 100
MOBILE         MOSUNNY   79  75  87 CALM      29.97F
$$

!GAZ120>161-280000
...Southwest and South Central Georgia...

CITY           SKY/WX    TMP DP  RH WIND       PRES   REMARKS
THOMASVILLE    FAIR      90  70  51 N3        29.95F HX  95
BAINBRIDGE     SUNNY     90  77  66 E3        29.94S HX 102
MOODY AFB      SUNNY     87  73  63 CALM      29.92F HX  95
VALDOSTA       MOSUNNY   84  76  76 CALM      29.94S HX  93
MOULTRIE       SUNNY     90  70  51 CALM      29.95F HX  95
BLAKELY        SUNNY     93  72  49 CALM      29.94S HX 100
ALBANY         SUNNY     91  70  49 SE6       29.95F HX  96
TIFTON         FAIR      87  76  69 CALM      29.94F HX  97
FITZGERALD     FAIR      91  73  56 NE3       29.96S HX 100
CORDELE        FAIR      94  71  46 CALM      29.95S HX 101
AMERICUS       FAIR      90  68  48 CALM      29.97R HX  93
HOMERVILLE     FAIR      88  73  62 CALM      29.94F HX  96
$$

!GMZ750-755-770-775-280000
...Coastal and Buoy Obs...

STATION/POSITION TIME  TEMP    WIND        PRES    VSBY  WAVE
                       AIR SEA DIR/SP/G                  HT/PER
                 (UTC) (F)     (DEG/KT/KT) (MB)    (MI)  (FT/S)
KEATON BEACH     2300   86     250/  7/  8 1013.8S
CEDAR KEY        2300   85     250/  7/ 10 1014.7S
C TOWER          2300   80                 1015.1S
APALACHICOLA BUO 2250   85 88  270/  6/  8 1014.3F         1/ 4
PANAMA CITY BUOY 2250   85 86  300/  8/  8 1014.2F         1
MOBILE BUOY      2300   87 88  310/  4/  4 1015.0
ORANGE BCH AL BU 2250   87 88  280/ 12/ 14 1014.2F
$$




USA.gov is the U.S. government's official web portal to all federal, state and local government web resources and services.